Regional Weather Roundup
Issued by NWS

Home | Current Version | Previous Version | Text Only | Print | Product List | Glossary On
Versions: 1 2 3 4 5 6 7 8 9 10 11 12 13 14 15 16 17 18 19 20 21 22 23 24 25 26 27 28 29 30 31 32 33 34 35 36 37 38 39 40 41 42 43 44 45 46 47 48 49 50
506
ASUS43 KMPX 222210
RWRMN
WEATHER ROUNDUP FOR MINNESOTA
NATIONAL WEATHER SERVICE TWIN CITIES/CHANHASSEN MN
500 PM CDT TUE MAY 22 2018


NOTE: "FAIR" INDICATES FEW OR NO CLOUDS BELOW 12,000 FEET WITH NO
SIGNIFICANT WEATHER AND/OR OBSTRUCTIONS TO VISIBILITY. N/A MEANS
CURRENT SKY AND/OR WEATHER CONDITIONS ARE NOT AVAILABLE.

MNZ060>063-068>070-222300-
   Twin Cities Metro

CITY           SKY/WX    TMP DP  RH WIND       PRES   REMARKS
TWIN CITIES    PTSUNNY   75  57  53 MISG      30.03S
ST PAUL        PTSUNNY   73  58  59 SE8       30.03S
CRYSTAL        FAIR      75  54  47 S10       30.01S
BLAINE         PTSUNNY   75  55  50 SE5       30.03S
LAKEVILLE      PTSUNNY   75  57  53 SE6       30.03S
EDEN PRAIRIE   PTSUNNY   76  57  51 E7        30.01F
SOUTH ST PAUL  FAIR      76  56  49 E3        30.03S
LAKE ELMO      PTSUNNY   72  59  64 S3        30.05S HAZE
$$
MNZ001>005-007-008-013>017-022>024-027-028-222300-
   Northwest Minnesota

CITY           SKY/WX    TMP DP  RH WIND       PRES   REMARKS
BEMIDJI        FAIR      73  53  49 CALM      30.00R
HALLOCK        FAIR      81  54  39 SW7       29.93F
ROSEAU         FAIR      79  55  44 S3        29.97S
WARROAD        FAIR      72  54  53 E9        29.98S
CROOKSTON      FAIR      79  54  41 CALM      29.96S
FOSSTON        FAIR      79  50  36 CALM      29.99S
DETROIT LAKES  FAIR      75  54  46 SW8       30.01F
MOORHEAD       FAIR      81  50  34 S7        29.96F
PARK RAPIDS    FAIR      74  55  51 VRB7      30.01R
MAHNOMEN       FAIR      76  55  48 S8        29.99S
$$
MNZ006-009>011-018-025>026-222300-
   North Central Minnesota

CITY           SKY/WX    TMP DP  RH WIND       PRES   REMARKS
BAUDETTE       FAIR      77  44  30 SE5       29.98F
FLAG ISLAND    FAIR      75  45  33 SE6       29.97S
INTL FALLS     FAIR      80  41  24 N7        29.97F
WASKISH          N/A     73  55  53 W7        29.99S
BIG FORK       FAIR      79  54  41 S5        29.99F
LONGVILLE      FAIR      73  55  53 W6        30.01S
GRAND RAPIDS   FAIR      73  54  51 CALM      30.02F
CRANE LAKE     FAIR      77  37  24 CALM      29.99S
ORR            FAIR      79  39  24 CALM      29.96F
COOK           PTSUNNY   75  46  35 W5        29.99S
WALKER         FAIR      71  55  56 SE6       30.01R
$$
MNZ012-019>021-037-222300-
   Northeast Minnesota

CITY           SKY/WX    TMP DP  RH WIND       PRES   REMARKS
DULUTH         FAIR      75  53  46 W9        30.01S
ELY            FAIR      77  39  25 CALM      29.99S
HIBBING        PTSUNNY   77  53  43 NW9       29.99F
EVELETH        FAIR      77  52  41 CALM      30.00F
DULUTH HARBOR  FAIR      68  57  68 E8        29.99S
TWO HARBORS    FAIR      81  61  50 S9        29.98S
SILVER BAY     FAIR      75  54  46 S13       29.98S
GRAND MARAIS     N/A     51  41  68 SW9       29.98F
G MARAIS ARPRT FAIR      72  30  21 S10       30.02S
$$
MNZ029>031-032-039>041-046>048-054>057-064-222300-
   West Central Minnesota

CITY           SKY/WX    TMP DP  RH WIND       PRES   REMARKS
FERGUS FALLS   FAIR      77  54  44 S8        29.93F
WHEATON        SUNNY     82  46  28 S10       29.97S
MORRIS         SUNNY     81  54  39 S3        29.97S
ALEXANDRIA     FAIR      78  55  44 S7        30.02S
ELBOW LAKE     FAIR      78  56  47 SE10      29.99S
WADENA         FAIR      73  55  53 SE7       30.01S
GLENWOOD       FAIR      77  55  47 S5        30.02S
APPLETON       MOSUNNY   81  52  36 SE7       29.97S
BENSON         MOSUNNY   79  55  44 S6        30.00S
ORTONVILLE     SUNNY     81  55  41 S9        29.96S
MADISON        MOSUNNY   82  55  39 SE5       29.96S
WILLMAR        FAIR      75  59  57 E8        30.02F
$$
MNZ033>034-036-042>043-049>051-058-059-222300-
   Central Minnesota

CITY           SKY/WX    TMP DP  RH WIND       PRES   REMARKS
ST CLOUD       CLOUDY    74  55  51 S10G17    30.02S
SAUK CENTRE    FAIR      73  57  56 SE5       30.03R
PAYNESVILLE    FAIR      73  59  59 SE3       30.03S
PINE RIVER     FAIR      72  54  53 S5        30.05R
BRAINERD       FAIR      75  53  46 S5        30.02S
STAPLES        FAIR      75  52  43 S3        30.01S
LONG PRAIRIE   CLOUDY    70  54  56 E8        30.03S
LITTLE FALLS   PTSUNNY   73  54  49 SW8       30.02S
LITCHFIELD     FAIR      75  61  60 CALM      30.02S
BUFFALO        PTSUNNY   73  55  54 SE5       30.04R
MAPLE LAKE     PTSUNNY   75  59  57 SE3       30.04R
HUTCHINSON     PTSUNNY   79  61  53 SE3       30.02S
$$
MNZ037-044-045-052-053-222300-
   East Central Minnesota

CITY           SKY/WX    TMP DP  RH WIND       PRES   REMARKS
PRINCETON      FAIR      79  55  44 S5        30.03S
MORA           PTSUNNY   70  54  56 S3        30.05R
CAMBRIDGE      PTSUNNY   75  57  53 S7        30.03S
RUSH CITY      CLOUDY    72  55  55 SW3       30.03S
MOOSE LAKE     CLOUDY    73  52  46 W3        30.00F
HINCKLEY       CLOUDY    72  55  56 E3        30.03S
CLOQUET        PTSUNNY   73  50  43 SW7       30.01S
MCGREGOR       FAIR      73  54  49 S6        30.02F
$$
MNZ071>073-080-081-089-090-097-098-222300-
   Southwest Minnesota

CITY           SKY/WX    TMP DP  RH WIND       PRES   REMARKS
MONTEVIDEO     SUNNY     84  57  39 S6        29.98S
GRANITE FALLS  MOSUNNY   81  58  46 SE8       29.99F
CANBY          MOSUNNY   81  55  40 SE8       29.97F
MARSHALL       MOSUNNY   81  58  45 SE14      29.96F
REDWOOD FALLS  MOSUNNY   77  60  55 SE8       29.99F
OLIVIA         SUNNY     77  59  53 CALM      29.99F
PIPESTONE      SUNNY     81  63  54 S10       29.97F
WINDOM         MOSUNNY   79  54  41 S7        29.99S
WORTHINGTON      N/A     77  62  59 SE12      29.99F
JACKSON        MOSUNNY   77  59  53 SE8       30.01S
TRACY          MOSUNNY   80  60  49 S8        29.97F
SLAYTON        MOSUNNY   79  60  52 S13       29.99F
$$
MNZ065>067-074>077-082>085-091>093-222300-
   South Central Minnesota

CITY           SKY/WX    TMP DP  RH WIND       PRES   REMARKS
MANKATO        FAIR      78  56  46 SE3       30.00F
NEW ULM        SUNNY     79  52  38 CALM      29.98F
ST JAMES       MOSUNNY   81  54  39 CALM      29.99F
FAIRMONT       PTSUNNY   79  60  52 S12       29.99
GLENCOE        PTSUNNY   78  56  46 SE3       30.00S
FARIBAULT      FAIR      75  57  53 CALM      30.03S
OWATONNA       FAIR      75  61  60 E8        30.03S
WASECA         FAIR      77  55  47 SE3       30.03S
ALBERT LEA     FAIR      75  54  46 CALM      30.02S
$$
MNZ078>079-086>088-094>096-222300-
   Southeast Minnesota

CITY           SKY/WX    TMP DP  RH WIND       PRES   REMARKS
ROCHESTER      PTSUNNY   73  60  63 E3        30.05F
RED WING       FAIR      73  52  46 S7        30.03F
STANTON        CLOUDY    75  58  55 SE7       30.02S
DODGE CENTER   FAIR      73  57  56 CALM      30.05S
WINONA         CLOUDY    64  57  77 CALM      30.04S
AUSTIN         FAIR      75  57  53 CALM      30.02F
PRESTON        FAIR      69  58  66 E6        30.06F
$$
ABBREVIATIONS USED IN REMARKS
   TC - TEMPERATURES IN CELSIUS
  WCI - WIND CHILL INDEX
   HX - HEAT INDEX
  VSB - VISIBILITY
$$




USA.gov is the U.S. government's official web portal to all federal, state and local government web resources and services.